星链-31939 (STARLINK-31939 )

导读 | 豆包AI

STARLINK-31939是美国SpaceX星链互联网卫星项目中的一颗卫星,于北京时间2024年6月8日发射入轨,属于星链星座扩容部署的组成部分。星链项目旨在构建全球卫星互联网星座,为全球范围内提供低延迟宽带互联网服务,该卫星加入后进一步扩充了星链星座的在轨规模。

基本信息
目录编号:
60026
目录名称:
STARLINK-31939
国际标识:
2024-111L
轨道中心:
EARTH
卫星名称:
星链-31939
卫星全名:
星链-31939 (STARLINK-31939 )
卫星状态:
在轨 (已飞行645 天)
发射日期:
2024-06-08 UTC
国别 :
美国 (US)
星等 :
--
轨道信息
数据来源 国际轨道数据
星历时间: 2026-03-15T13:24:52+0800
12小时前
查看轨道信息
半长轴: 6853.428km
偏心率: 0.0001369
轨道倾角: 53.161°
近地点辐角 78.418°
升交点赤经 49.727°
平近点角 281.697°
近地点: 474.352km
远地点: 476.23km
周期: 94.107分钟
每日圈数: 15.301746
详细信息
固有亮度:
5
最大亮度:
1.5
卫星平台:
Starlink v2.0 mini
覆盖范围:
全球
运营商:
太空探索技术公司
运营商所在国:
美国
制造商(研发单位):
太空探索技术公司
制造商所在国:
美国
使用方式:
暂无
卫星简介
星链(Starlink)计划是由太空探索技术公司(SpaceX)提出的一个巨型低轨卫星互联网星座项目,计划在2019年至2024年间在太空搭建由约1.2万颗卫星组成的“星链”网络,其中1584颗将部署在地球上空550千米处的近地轨道,并从2020年开始工作。该卫星仍在工作。
2D轨道图
3D轨道图
轨道高度分析图
轨道倾角分析图
轨道综合分析图
查看轨道综合分析图